Welcome to the New NWS' Forecast!
Most changes are behind the scenes, but click here for differences you might notice.
Latest weather observations around

Alexander City, Thomas C Russell Field Airport (KALX)

Using English Units (Switch to International System of Units)
Date/ Time (CDT) Wind (mph) Vis. (mi) Weather Sky Cond. Temp (°F) Rel. Humidity Wind Chill (°F) Heat Index (°F) Pressure Precip. (in)
Air Dwpt 6 hour Altimeter (inHg) Sea level (inHg) 1 hr 3 hr 6 hr
Max Min
Oct 21 03:55 N 8 10 Clear CLR 52 46     81%     30.13        
Oct 21 03:35 N 9 10 Clear CLR 53 48     86%     30.13        
Oct 21 03:15 N 8 10 Clear CLR 53 50     89%     30.12        
Oct 21 02:55 Calm 10 Clear CLR 50 50     100%     30.13        
Oct 21 02:35 W 3 10 Clear CLR 50 50     100%     30.13        
Oct 21 02:15 Calm 10 Clear CLR 50 50     100%     30.12        
Oct 21 01:55 Calm 10 Clear CLR 52 52     98%     30.11        
Oct 21 01:35 NW 6 10 Clear CLR 53 53     98%     30.12        
Oct 21 01:15 NNW 6 10 Clear CLR 53 53     100%     30.12        
Oct 21 00:55 N 3 10 Clear CLR 53 53     98%     30.12        
Oct 21 00:35 Calm 10 Clear CLR 55 53     93%     30.13        
Oct 21 00:15 Calm 10 Clear CLR 56 54     93%     30.13        
Oct 20 23:55 NNW 5 10 Clear CLR 56 54     92%     30.13        
Oct 20 23:35 NNW 7 10 Clear CLR 56 54     92%     30.14        
Oct 20 23:15 NNW 6 10 Clear CLR 57 55     92%     30.14        
Oct 20 22:55 NNW 7 10 Clear CLR 58 55     92%     30.14        
Oct 20 22:35 NNW 7 10 Clear CLR 58 56     94%     30.13        
Oct 20 22:15 NNW 8 10 Clear CLR 58 57     97%     30.13        
Oct 20 21:50 NW 6 10 Clear CLR 57 57     100%     30.12        
Oct 20 21:35 WNW 3 10 Clear CLR 57 57     100%     30.12        
Oct 20 21:15 WNW 5 10 Clear CLR 57 57     100%     30.11        
Oct 20 20:55 Calm 10 Clear CLR 58 58     100%     30.1        
Oct 20 20:35 NW 3 10 Clear CLR 58 58     100%     30.1        
Oct 20 20:15 NW 5 10 Clear CLR 59 59     100%     30.09        
Oct 20 19:55 NW 5 10 Clear CLR 60 59     99%     30.09        
Oct 20 19:35 NW 6 10 Clear CLR 60 59     96%     30.09        
Oct 20 19:15 WNW 6 10 Clear CLR 61 60     96%     30.08        
Oct 20 18:55 NW 7 10 Partly Cloudy SCT017 62 61     96%     30.07        
Oct 20 18:35 NW 8 10 Partly Cloudy SCT019 63 62     96%     30.06        
Oct 20 18:15 WNW 6 10 Clear CLR 63 62     94%     30.05        
Oct 20 17:55 NNW 6 10 Clear CLR 64 62     91%     30.04        
Oct 20 17:35 NW 7 10 Clear CLR 65 62     92%     30.04        
Oct 20 17:15 NW 8 10 Partly Cloudy SCT025 65 63     90%     30.03        
Oct 20 16:55 NNW 5 10 Partly Cloudy SCT025 65 63     91%     30.03        
Oct 20 16:35 NW 8 10 Partly Cloudy SCT017 SCT022 SCT029 66 63     90%     30.03        
Oct 20 16:15 NW 9 10 Cloudy BKN017 BKN024 OVC029 67 64     90%     30.02        
Oct 20 15:55 NW 7 10 Cloudy SCT016 BKN023 OVC030 67 64     91%     30.02        
Oct 20 15:35 NW 9 10 Cloudy OVC021 67 64     90%     30.02        
Oct 20 15:15 NW 9 10 Cloudy OVC019 67 64     91%     30.02        
Oct 20 14:55 WNW 5 10 Cloudy SCT017 BKN022 OVC032 67 65     93%     30.01        
Oct 20 14:35 NNW 9 10 Mostly Cloudy BKN032 67 64     88%     30.01        
Oct 20 14:15 NNE 3 10 Clear CLR 67 63     88%     30.01        
Oct 20 13:55 NW 7 10 Partly Cloudy SCT050 SCT075 67 64     89%     30.03        
Oct 20 13:35 NNW 6 10 Mostly Cloudy SCT015 SCT030 BKN070 67 64     93%     30.04        
Oct 20 13:15 NW 8 10 Cloudy SCT015 OVC028 66 65     95%     30.05        
Oct 20 12:55 NNW 8 10 Cloudy SCT015 BKN028 OVC034 67 66     96%     30.06       0
Oct 20 12:35 NNW 10 10 Mostly Cloudy SCT012 SCT022 BKN036 68 67     96%     30.06        
Oct 20 12:15 NW 8 10 Mostly Cloudy SCT005 SCT010 BKN048 66 66     99%     30.06        
Oct 20 11:55 NW 6 10 Mostly Cloudy SCT005 BKN019 BKN027 65 65     100%     30.07   0    
Oct 20 11:35 NNW 8 5 Light Rain SCT005 BKN011 OVC027 65 65     100%     30.08   0    
Oct 20 11:15 NW 8 7 Heavy Rain SCT005 BKN014 OVC027 65 65     100%     30.09   0    
Oct 20 10:55 NNW 8 10 Light Rain BKN013 OVC018 65 65     100%     30.08        
Oct 20 10:35 NNW 9 10 Cloudy SCT010 OVC018 69 69     100%     30.07        
Oct 20 10:15 NNW 7 10 Cloudy SCT005 SCT010 OVC016 69 69     100%     30.07        
Oct 20 09:55 NW 8 3 Rain BKN007 OVC012 69 69     100%     30.08   0 0  
Oct 20 09:35 W 3 7 Cloudy OVC005 71 71     100%   72 30.07   0    
Oct 20 09:15 W 6 4 Light Rain OVC003 71 71     100%   72 30.06   0    
Oct 20 08:55 W 5 7 Cloudy OVC003 70 70     100%   72 30.06        
Oct 20 08:35 WSW 3 5 Fog/Mist OVC003 70 70     100%     30.05        
Oct 20 08:15 Calm 0.5 Fog OVC001 67 67     100%     30.04        
Oct 20 07:55 Calm 0.25 Fog OVC001 65 65     100%     30.04        
Oct 20 07:35 Calm 0.25 Fog OVC001 64 64     100%     30.04        
Oct 20 07:15 Calm 0.25 Fog OVC001 64 64     100%     30.04        
Oct 20 06:55 Calm 0.5 Fog OVC001 64 64     100%     30.04        
Oct 20 06:35 Calm 0.75 Fog/Mist OVC001 63 63     100%     30.04        
Oct 20 06:15 Calm 4 Fog/Mist OVC003 63 63     100%     30.04        
Oct 20 05:55 Calm 10 Cloudy OVC003 63 63     100%     30.04        
Oct 20 05:35 Calm 10 Cloudy OVC003 63 63     100%     30.05        
Oct 20 05:15 Calm 10 Cloudy OVC003 62 62     100%     30.04        
Oct 20 04:55 Calm 10 Cloudy OVC005 62 62     100%     30.05        
Oct 20 04:35 Calm 10 Mostly Cloudy BKN005 BKN100 62 62     100%     30.05        
Oct 20 04:15 Calm 10 Partly Cloudy SCT100 62 62     100%     30.05        
Oct 20 03:55 Calm 10 Clear CLR 61 61     100%     30.04        
Oct 20 03:35 Calm 10 Clear CLR 62 62     100%     30.04        
Oct 20 03:15 Calm 10 Clear CLR 62 62     100%     30.06        
Oct 20 02:55 Calm 10 Clear CLR 62 62     100%     30.06        
Oct 20 02:35 Calm 10 Clear CLR 62 62     100%     30.08        
Oct 20 02:15 Calm 10 Partly Cloudy SCT055 SCT070 63 63     100%     30.09        
Oct 20 01:55 Calm 10 Partly Cloudy SCT045 SCT050 SCT070 63 63     100%     30.09        
Oct 20 01:35 Calm 10 Clear CLR 63 63     100%     30.1        
Oct 20 01:15 Calm 10 Clear CLR 63 63     100%     30.11        
Oct 20 00:55 Calm 10 Partly Cloudy SCT027 SCT036 SCT070 63 63     100%     30.1        
Oct 20 00:35 Calm 10 Mostly Cloudy SCT025 SCT036 BKN043 64 64     100%     30.11        
Oct 20 00:15 Calm 10 Mostly Cloudy SCT036 BKN042 BKN065 64 64     100%     30.12        
Oct 19 23:55 Calm 10 Partly Cloudy SCT040 SCT065 64 64     100%     30.13        
Oct 19 23:35 Calm 10 Mostly Cloudy SCT025 SCT033 BKN065 64 64     100%     30.14        
Oct 19 23:15 Calm 10 Mostly Cloudy BKN027 BKN033 BKN065 64 64     100%     30.14        
Oct 19 22:55 Calm 10 Partly Cloudy SCT025 64 64     100%     30.14        
Oct 19 22:35 Calm 10 Clear CLR 64 64     100%     30.14        
Oct 19 22:15 Calm 10 Clear CLR 65 65     100%     30.14        
Oct 19 21:55 Calm 10 Clear CLR 65 65     100%     30.14        
Oct 19 21:35 Calm 10 Clear CLR 65 65     100%     30.14        
Oct 19 21:15 Calm 10 Clear CLR 66 66     100%     30.14        
Oct 19 20:55 Calm 10 Clear CLR 66 66     100%     30.14        
Oct 19 20:35 Calm 10 Clear CLR 67 67     100%     30.14        
Oct 19 20:15 Calm 10 Clear CLR 67 67     99%     30.14        
Oct 19 19:55 Calm 10 Clear CLR 67 67     100%     30.14        
Oct 19 19:35 Calm 10 Clear CLR 68 68     99%     30.15        
Oct 19 19:15 Calm 10 Clear CLR 69 68     99%     30.15        
Oct 19 18:55 Calm 10 Clear CLR 69 69     99%     30.15        
Oct 19 18:35 Calm 10 Clear CLR 69 69     99%     30.14        
Oct 19 18:15 Calm 10 Clear CLR 70 69     98%     30.14        
Oct 19 17:55 Calm 10 Clear CLR 71 70     97%   72 30.15        
Oct 19 17:35 Calm 10 Clear CLR 72 70     93%   73 30.15        
Oct 19 17:15 Calm 10 Clear CLR 72 70     91%   74 30.15        
Oct 19 16:55 Calm 10 Clear CLR 73 69     88%   74 30.16        
Oct 19 16:35 Calm 10 Clear CLR 73 68     85%   74 30.16        
Oct 19 16:15 Calm 10 Partly Cloudy SCT029 SCT090 73 68     83%   74 30.16        
Oct 19 15:55 SE 3 10 Mostly Cloudy BKN029 72 68     85%   73 30.17        
Oct 19 15:35 Calm 10 Mostly Cloudy BKN027 73 68     84%   74 30.17        
Oct 19 15:15 SE 3 10 Cloudy OVC027 74 67     81%   74 30.17        
Oct 19 14:55 Calm 10 Mostly Cloudy BKN027 75 68     79%   76 30.18        
Oct 19 14:35 SE 5 10 Mostly Cloudy BKN025 73 67     81%   74 30.19        
Oct 19 14:15 E 6 10 Mostly Cloudy BKN025 BKN045 73 66     79%   74 30.19        
Oct 19 13:55 WSW 5 10 Partly Cloudy SCT023 SCT045 73 66     79%   74 30.21        
Oct 19 13:35 ESE 5 10 Mostly Cloudy BKN045 72 65     80%   73 30.21        
Oct 19 13:15 Calm 10 Partly Cloudy SCT020 SCT038 SCT044 71 65     80%   72 30.22        
Oct 19 12:55 Calm 10 Cloudy OVC018 71 64     80%   71 30.23        
Oct 19 12:35 Calm 10 Cloudy OVC018 69 63     82%     30.24        
Oct 19 12:15 Calm 10 Cloudy OVC016 68 62     82%     30.25        
Oct 19 11:55 E 5 10 Cloudy OVC016 68 62     82%     30.26        
Oct 19 11:35 E 5 10 Cloudy OVC016 67 62     82%     30.27        
Oct 19 11:15 NE 5 10 Mostly Cloudy BKN016 BKN033 67 62     81%     30.29        
Oct 19 10:55 E 6 10 Mostly Cloudy BKN016 67 61     81%     30.29        
Oct 19 10:35 ENE 3 10 Cloudy OVC018 65 60     83%     30.29        
Oct 19 10:15 E 3 10 Mostly Cloudy BKN018 BKN029 65 60     83%     30.3        
Oct 19 09:55 E 6 10 Mostly Cloudy BKN016 64 59     84%     30.3        
Oct 19 09:35 ESE 5 10 Cloudy BKN018 OVC026 63 58     86%     30.3        
Oct 19 09:15 Calm 10 Mostly Cloudy BKN016 BKN023 BKN028 61 58     88%     30.3        
Oct 19 08:55 Calm 10 Cloudy OVC016 60 57     90%     30.3        
Oct 19 08:35 Calm 10 Mostly Cloudy BKN016 60 57     91%     30.3        
Oct 19 08:15 Calm 10 Mostly Cloudy BKN016 59 57     93%     30.29        
Oct 19 07:55 Calm 10 Cloudy OVC016 58 57     94%     30.29        
Oct 19 07:35 Calm 10 Cloudy BKN016 OVC023 58 56     96%     30.29        
Oct 19 07:15 Calm 10 Cloudy OVC016 57 56     96%     30.28        
Oct 19 06:55 NE 5 10 Cloudy OVC016 58 56     96%     30.28        
Oct 19 06:35 ENE 3 10 Cloudy BKN018 OVC023 57 56     97%     30.28        
Oct 19 06:15 ENE 3 10 Cloudy BKN016 OVC023 58 56     96%     30.28        
Oct 19 05:55 Calm 10 Cloudy OVC016 58 56     96%     30.29        
Oct 19 05:35 N 3 10 Cloudy BKN016 OVC039 57 56     97%     30.28        
Oct 19 05:15 NW 3 10 Cloudy OVC014 57 56     96%     30.28        
Oct 19 04:55 NNE 3 10 Cloudy OVC017 58 56     96%     30.27        
Oct 19 04:35 NNE 3 10 Mostly Cloudy BKN017 57 56     96%     30.28        
Oct 19 04:15 NNE 3 10 Partly Cloudy SCT015 57 56     97%     30.27        
Oct 19 03:55 Calm 10 Clear CLR 57 56     97%     30.27        
Oct 19 03:35 Calm 10 Clear   57 56     97%     30.28        
Oct 19 03:15 NE 3 10 Clear   57 56     97%     30.28        
Oct 19 02:55 NNE 3 10 Clear   57 57     97%     30.28        
Oct 19 02:35 Calm 10 Clear CLR 57 57     98%     30.28        
Oct 19 02:15 Calm 10 Clear CLR 57 57     98%     30.29        
Oct 19 01:55 Calm 10 Clear CLR 57 57     98%     30.29        
Oct 19 01:35 Calm 10 Clear CLR 57 57     98%     30.29        
Oct 19 01:15 Calm 10 Clear CLR 57 57     97%     30.29        
Oct 19 00:55 Calm 10 Clear CLR 58 57     97%     30.29        
Oct 19 00:35 Calm 10 Clear CLR 58 57     97%     30.29        
Oct 19 00:15 Calm 10 Clear CLR 58 57     97%     30.3        
Oct 18 23:55 N 3 10 Clear CLR 58 57     97%     30.3        
Oct 18 23:35 Calm 10 Clear CLR 59 58     96%     30.3        
Oct 18 23:15 Calm 10 Clear CLR 59 58     96%     30.3        
Oct 18 22:55 Calm 10 Clear CLR 58 58     99%     30.31        
Oct 18 22:35 Calm 10 Clear CLR 58 58     100%     30.31        
Oct 18 22:15 Calm 10 Clear CLR 58 58     100%     30.31        
Oct 18 21:55 Calm 10 Clear CLR 58 58     100%     30.31        
Oct 18 21:35 Calm 10 Clear CLR 61 59     92%     30.31        
Oct 18 21:15 W 3 10 Clear CLR 61 59     94%     30.31        
Oct 18 20:55 Calm 10 Clear CLR 61 60     96%     30.31        
Oct 18 20:35 Calm 10 Clear CLR 60 60     99%     30.31        
Oct 18 20:15 Calm 10 Clear CLR 61 60     97%     30.3        
Oct 18 19:55 Calm 10 Clear CLR 61 60     96%     30.31        
Oct 18 19:35 Calm 10 Clear CLR 62 61     96%     30.3        
Oct 18 19:15 Calm 10 Clear CLR 63 61     93%     30.3        
Oct 18 18:55 Calm 10 Clear CLR 64 61     90%     30.29        
Oct 18 18:35 Calm 10 Clear CLR 65 61     88%     30.29        
Oct 18 18:15 Calm 10 Clear CLR 67        %     30.29        
Oct 18 17:55 Calm 10 Clear CLR 70 63     77%   70 30.29        
Oct 18 17:35 Calm 10 Clear CLR 72 60     65%   72 30.29        
Oct 18 17:15 Calm 10 Clear CLR 73 57     56%   73 30.28        
Oct 18 16:55 NE 3 10 Clear CLR 74 56     54%   73 30.28        
Oct 18 16:35 NNE 5 10 Clear CLR 74 55     53%   73 30.28        
Oct 18 16:15 Calm 10 Clear CLR 74 54     51%   73 30.27        
Oct 18 15:55 N 3 10 Clear CLR 75 55     50%   74 30.27        
Oct 18 15:35 NE 5 10 Clear CLR 74 56     53%   74 30.27        
Oct 18 15:15 NNW 3 10 Clear CLR 74 56     53%   74 30.27        
Oct 18 14:55 N 6 10 Clear CLR 74 56     54%   74 30.27        
Oct 18 14:35 NE 5 10 Clear CLR 74 56     53%   74 30.28        
Oct 18 14:15 Calm 10 Clear CLR 74 56     54%   73 30.28        
Oct 18 13:55 Calm 10 Clear CLR 73 56     56%   72 30.29        
Oct 18 13:35 Calm 10 Clear CLR 72 56     56%   72 30.29        
Oct 18 13:15 NNE 3 10 Clear CLR 72 56     57%   71 30.3        
Oct 18 12:55 ESE 3 10 Clear CLR 71 55     57%   70 30.31        
Oct 18 12:35 NNE 5 10 Clear CLR 71 54     57%   70 30.32        
Oct 18 12:15 NNE 5 7 Clear CLR 70 54     57%   70 30.33        
Oct 18 11:55 NNE 5 10 Clear CLR 69 54     58%     30.34        
Oct 18 11:35 E 6 10 Clear CLR 68 53     58%     30.34        
Oct 18 11:15 ENE 7 10 Clear CLR 68 53     58%     30.35        
Oct 18 10:55 E 6 10 Clear CLR 66 53     61%     30.35        
Oct 18 10:35 NNE 5 10 Clear CLR 65 52     63%     30.35        
Oct 18 10:15 Calm 10 Clear CLR 64 53     67%     30.36        
Oct 18 09:55 N 6 10 Clear CLR 62 52     70%     30.36        
Oct 18 09:35 NNE 7 10 Clear CLR 60 51     72%     30.36        
Oct 18 09:15 NNE 6 10 Clear CLR 59 51     74%     30.36        
Oct 18 08:55 NNE 9 10 Clear CLR 58 50     74%     30.35        
Oct 18 08:35 NNE 7 10 Clear CLR 58 50     75%     30.35        
Oct 18 08:15 NNE 9 10 Clear CLR 56 50     79%     30.34        
Oct 18 07:55 NE 3 10 Clear CLR 56 50     80%     30.34        
Oct 18 07:35 E 3 10 Clear CLR 55 50     82%     30.33        
Oct 18 07:15 ESE 3 10 Clear CLR 55 50     84%     30.32        
Oct 18 06:55 NE 7 10 Clear CLR 54 50     85%     30.31        
Oct 18 06:35 N 3 10 Clear CLR 55 50     83%     30.31        
Oct 18 06:15 NNE 5 10 Clear CLR 55 50     83%     30.31        
Oct 18 05:55 NNE 5 10 Clear CLR 56 50     80%     30.3        
Oct 18 05:35 NNE 5 10 Clear CLR 56 51     83%     30.3        
Oct 18 05:15 N 5 10 Clear CLR 56 51     83%     30.29        
Oct 18 04:55 NNE 5 10 Clear CLR 56 51     82%     30.29        
Oct 18 04:35 NE 5 10 Clear CLR 57 51     81%     30.3        
Oct 18 04:15 NNE 5 10 Clear CLR 57 51     79%     30.3        
Oct 18 03:55 E 3 10 Clear CLR 57 51     81%     30.3        
Oct 18 03:35 NNE 3 10 Clear CLR 57 52     85%     30.3        
Oct 18 03:15 Calm 10 Clear CLR 56 54     90%     30.3        
Oct 18 02:55 Calm 10 Clear CLR 57 53     87%     30.3        
Oct 18 02:35 N 3 10 Clear CLR 58 54     87%     30.3        
Oct 18 02:15 NE 3 10 Partly Cloudy SCT060 SCT100 58 54     86%     30.29        
Oct 18 01:55 NE 3 10 Clear CLR 58 54     86%     30.29        
Oct 18 01:35 NNE 3 10 Clear CLR 59 55     87%     30.3        
Oct 18 01:15 Calm 10 Clear CLR 59 56     89%     30.29        
Oct 18 00:55 NNE 5 10 Clear CLR 59 56     90%     30.29        
Oct 18 00:35 N 5 10 Clear CLR 59 57     94%     30.29        
Oct 18 00:15 Calm 10 Clear CLR 59 58     96%     30.29        
Oct 17 23:55 Calm 10 Clear CLR 60 58     94%     30.29        
Oct 17 23:35 N 3 10 Clear CLR 60 58     94%     30.29        
Oct 17 23:15 N 5 10 Clear CLR 60 58     93%     30.29        
Oct 17 22:55 Calm 10 Clear CLR 61 58     92%     30.29        
Oct 17 22:35 Calm 10 Clear CLR 61 59     91%     30.29        
Oct 17 22:15 NNW 3 10 Clear CLR 61 59     93%     30.29        
Oct 17 21:55 Calm 10 Clear CLR 62 59     91%     30.29        
Oct 17 21:35 NE 3 10 Clear   62 59     89%     30.29        
Oct 17 21:15 Calm 10 Clear   63 59     88%     30.29        
Oct 17 20:55 Calm 10 Clear   64 58     83%     30.29        
Oct 17 20:35 N 3 10 Mostly Cloudy BKN060 64 58     80%     30.28        
Oct 17 20:15 N 3 10 Cloudy OVC060 65 57     75%     30.28        
Oct 17 19:55 NNE 3 10 Cloudy OVC060 65 55     69%     30.27        
Oct 17 19:35 NNE 5 10 Cloudy OVC060 65 53     65%     30.27        
Oct 17 19:15 NNE 7 10 Cloudy OVC060 66 52     61%     30.27        
Oct 17 18:55 NNE 7 10 Cloudy BKN060 OVC075 67 51     55%     30.26        
Oct 17 18:35 N 7 10 Mostly Cloudy BKN060 BKN075 68 63     84%     30.26        
Oct 17 18:15 N 8 10 Cloudy OVC060 68 64     85%     30.25        
Oct 17 17:55 N 8 10 Mostly Cloudy BKN060 69 65     86%     30.24        
Oct 17 17:35 N 7 10 Mostly Cloudy BKN060 69 65     86%     30.24        
Oct 17 17:15 N 8 10 Cloudy OVC060 69 65     86%     30.23        
Oct 17 16:55 N 9 10 Cloudy OVC060 69 65     86%     30.23        
Oct 17 16:35 N 9 10 Mostly Cloudy BKN060 70 65     85%     30.23        
Oct 17 16:15 NNW 9 10 Cloudy OVC060 70 65     85%   71 30.23        
Oct 17 15:55 N 11 10 Partly Cloudy SCT060 SCT090 71 66     84%   72 30.23        
Oct 17 15:35 NNW 10 10 Partly Cloudy SCT060 72 66     81%   73 30.22        
Oct 17 15:15 NNE 7 10 Clear CLR 72 66     83%   73 30.22        
Oct 17 14:55 NNW 7 10 Partly Cloudy SCT050 71 66     83%   72 30.22        
Oct 17 14:35 N 7 10 Mostly Cloudy BKN050 71 65     82%   72 30.22        
Oct 17 14:15 N 7 10 Mostly Cloudy BKN050 71 65     83%   72 30.22        
Oct 17 13:55 N 7 10 Mostly Cloudy BKN050 71 65     83%   72 30.22        
Oct 17 13:35 N 3 10 Partly Cloudy SCT050 72 66     83%   72 30.23        
Oct 17 13:15 N 9 10 Partly Cloudy SCT049 72 67     86%   73 30.23        
Oct 17 12:55 NNW 9 10 Mostly Cloudy BKN049 71 67     88%   72 30.24        
Oct 17 12:35 N 9 10 Cloudy SCT018 OVC049 71 67     88%   72 30.25        
Oct 17 12:15 N 9 10 Mostly Cloudy SCT018 BKN049 71 67     87%   72 30.25        
Oct 17 11:55 N 8 10 Mostly Cloudy BKN049 70 67     90%   71 30.25        
Oct 17 11:35 N 9 10 Cloudy OVC049 70 67     91%     30.26        
Oct 17 11:15 N 7 10 Cloudy OVC049 70 66     89%     30.26        
Oct 17 10:55 Calm 10 Mostly Cloudy BKN049 70 67     89%     30.25        
Oct 17 10:35 N 6 10 Mostly Cloudy SCT043 BKN049 68 66     93%     30.25        
Oct 17 10:15 NE 7 10 Mostly Cloudy BKN044 68 66     92%     30.25        
Oct 17 09:55 N 5 10 Cloudy OVC048 68 66     93%     30.26        
Oct 17 09:35 NNE 3 10 Cloudy OVC050 67 65     93%     30.25        
Oct 17 09:15 N 7 10 Cloudy SCT012 SCT027 OVC050 67 65     95%     30.25        
Oct 17 08:55 NNE 6 10 Cloudy BKN012 BKN027 OVC050 67 65     95%     30.24        
Oct 17 08:35 N 7 10 Mostly Cloudy BKN012 66 65     98%     30.23        
Oct 17 08:15 N 7 10 Partly Cloudy SCT055 66 66     99%     30.23        
Oct 17 07:55 N 5 10 Mostly Cloudy SCT028 SCT050 BKN065 66 65     99%     30.22        
Oct 17 07:35 N 6 10 Cloudy SCT028 OVC050 65 65     100%     30.22        
Oct 17 07:15 NNE 5 10 Mostly Cloudy BKN050 BKN090 65 65     100%     30.21        
Oct 17 06:55 N 5 10 Cloudy OVC060 65 65     100%     30.21        
Oct 17 06:35 N 6 10 Mostly Cloudy BKN060 BKN075 BKN100 65 65     100%     30.21        
Oct 17 06:15 Calm 10 Mostly Cloudy SCT027 SCT044 BKN075 65 65     100%     30.2        
Oct 17 05:55 NNE 5 10 Cloudy BKN027 OVC044 65 65     100%     30.19        
Oct 17 05:35 N 7 10 Cloudy OVC027 65 65     100%     30.19        
Oct 17 05:15 N 9 10 Cloudy SCT008 BKN027 OVC040 65 65     100%     30.18        
Oct 17 04:55 N 7 10 Cloudy SCT008 BKN042 OVC050 66 66     100%     30.18        
Oct 17 04:35 N 8 10 Mostly Cloudy SCT025 SCT044 BKN050 66 66     100%     30.18        
Oct 17 04:15 N 7 10 Mostly Cloudy BKN049 BKN055 BKN080 66 66     100%     30.17        
Oct 17 03:55 N 5 10 Mostly Cloudy SCT046 BKN060 67 66     98%     30.16        
Oct 17 03:35 N 6 10 Cloudy SCT036 OVC046 67 67     98%     30.16        
Oct 17 03:15 N 6 10 Cloudy SCT036 OVC046 67 67     100%     30.15        
Oct 17 02:55 NE 5 10 Mostly Cloudy SCT038 BKN048 67 67     100%     30.15        
Oct 17 02:35 Calm 10 Cloudy SCT040 BKN048 OVC055 67 67     99%     30.15        
Oct 17 02:15 Calm 10 Mostly Cloudy SCT037 BKN048 BKN055 67 67     99%     30.15        
Oct 17 01:55 N 3 10 Cloudy SCT035 OVC044 67 67     100%     30.14        
Oct 17 01:35 Calm 10 Mostly Cloudy BKN035 BKN060 BKN080 67 67     100%     30.14        
Oct 17 01:15 Calm 10 Partly Cloudy SCT060 67 67     100%     30.14        
Oct 17 00:55 Calm 10 Partly Cloudy SCT075 67 67     100%     30.14        
Oct 17 00:35 NNE 3 10 Partly Cloudy SCT075 68 68     99%     30.14        
Oct 17 00:15 Calm 10 Mostly Cloudy SCT065 BKN075 68 68     100%     30.14        
Oct 16 23:55 Calm 10 Partly Cloudy SCT065 SCT075 68 68     100%     30.14        
Oct 16 23:35 Calm 10 Mostly Cloudy SCT050 BKN070 68 68     100%     30.16        
Oct 16 22:55 NNE 5 10 Mostly Cloudy SCT055 BKN080 68 68     100%     30.16        
Oct 16 22:35 N 5 10 Mostly Cloudy BKN011 BKN065 BKN080 68 68     100%     30.17        
Oct 16 22:15 N 3 10 Cloudy OVC011 68 68     100%     30.17        
Oct 16 21:55 N 8 10 Cloudy BKN011 OVC050 68 68     99%     30.16        
Oct 16 21:35 NNE 8 10 Mostly Cloudy SCT011 BKN050 BKN060 69 68     99%     30.16        
Oct 16 21:15 N 8 10 Mostly Cloudy SCT011 SCT060 BKN085 69 69     98%     30.16        
Oct 16 20:55 N 10 10 Mostly Cloudy SCT010 SCT050 BKN075 70 69     96%   71 30.16        
Oct 16 20:35 N 7 10 Mostly Cloudy SCT011 BKN055 BKN075 71 70     97%   72 30.15        
Oct 16 20:15 N 6 10 Cloudy OVC011 72 71     98%   73 30.15        
Oct 16 19:55 NNW 10 10 Mostly Cloudy BKN011 BKN060 73 72     98%   74 30.15        
Oct 16 19:35 NNW 8 10 Clear   74 73     96%   76 30.14        
Oct 16 19:15 NNW 6 10 Clear   75 73     96%   76 30.13        
Oct 16 18:55 N 6 10 Clear   75 73     94%   77 30.12        
Oct 16 18:35 NNW 5 10 Clear CLR 76 74     92%   78 30.12        
Oct 16 18:15 NNW 7 10 Clear CLR 77 74     91%   78 30.11        
Oct 16 17:55 NNW 6 10 Clear CLR 78 74     89%   80 30.11        
Oct 16 17:35 NW 5 10 Clear CLR 79 75     87%   83 30.09        
Oct 16 17:15 WNW 3 10 Partly Cloudy SCT060 80 75     87%   84 30.09        
Oct 16 16:55 Calm 10 Partly Cloudy SCT032 SCT039 SCT048 80 75     85%   85 30.09        
Oct 16 16:35 WNW 3 10 Mostly Cloudy SCT032 BKN055 81 75     81%   87 30.09        
Oct 16 16:15 SW 5 10 Mostly Cloudy SCT031 BKN038 BKN055 81 75     81%   88 30.09        
Oct 16 15:55 W 3 10 Partly Cloudy SCT028 SCT034 SCT042 81 75     81%   88 30.08        
Oct 16 15:35 WSW 5 10 Clear CLR 83 74     73%   90 30.08        
Oct 16 15:15 SSW 5 10 Clear CLR 83 74     74%   90 30.08        
Oct 16 14:55 WSW 7 10 Partly Cloudy SCT034 SCT040 SCT049 83 74     75%   90 30.08        
Oct 16 14:35 SW 6 10 Partly Cloudy SCT034 SCT040 SCT047 83 74     75%   90 30.09        
Oct 16 14:15 SW 6 10 Partly Cloudy SCT034 SCT047 83 75     78%   90 30.09        
Oct 16 13:55 SSW 8 10 Partly Cloudy SCT028 SCT032 SCT060 83 74     76%   90 30.09        
Oct 16 13:35 Calm 10 Mostly Cloudy BKN028 BKN035 83 75     79%   90 30.1        
Oct 16 13:15 Calm 10 Mostly Cloudy BKN030 BKN038 BKN045 81 74     81%   86 30.11        
Oct 16 12:55 NNW 3 10 Partly Cloudy SCT030 SCT038 SCT045 81 74     82%   86 30.12        
Oct 16 12:35 Calm 10 Clear CLR 82 75     79%   89 30.13        
Oct 16 12:15 W 3 10 Clear CLR 81 74     81%   86 30.13        
Oct 16 11:55 Calm 10 Partly Cloudy SCT022 81 74     81%   86 30.14        
Oct 16 11:35 ESE 3 10 Partly Cloudy SCT020 SCT026 79 74     84%   83 30.15        
Oct 16 11:15 N 7 10 Partly Cloudy SCT020 SCT026 78 74     87%   81 30.16        
Oct 16 10:55 Calm 10 Mostly Cloudy SCT018 BKN024 78 74     87%   79 30.16        
Oct 16 10:35 NNE 3 10 Mostly Cloudy BKN016 79 74     85%   83 30.16        
Oct 16 10:15 Calm 10 Partly Cloudy SCT016 76 73     89%   78 30.17        
Oct 16 09:55 NNE 3 10 Partly Cloudy SCT016 77        %     30.16        
Oct 16 09:35 Calm 10 Mostly Cloudy BKN016 75 72     90%   76 30.16        
Oct 16 09:15 Calm 10 Mostly Cloudy BKN016 72        %     30.16        
Oct 16 08:55 NE 6 10 Cloudy OVC016 72 71     96%   73 30.16        
Oct 16 08:35 Calm 10 Cloudy OVC016 71 71     99%   72 30.16        
Oct 16 08:15 Calm 10 Cloudy OVC016 70 70     100%     30.15        
Oct 16 07:55 N 5 10 Cloudy OVC014 69 69     100%     30.16        
Oct 16 07:35 Calm 10 Cloudy OVC014 69 69     100%     30.15        
Oct 16 07:15 NNE 3 10 Cloudy OVC016 69 69     100%     30.14        
Oct 16 06:55 Calm 10 Cloudy BKN016 OVC035 68 68     100%     30.14        
Oct 16 06:35 N 3 10 Cloudy SCT016 BKN035 OVC042 68 68     100%     30.13        
Oct 16 06:15 N 3 10 Mostly Cloudy BKN033 BKN039 69 69     100%     30.12        
Oct 16 05:55 NNW 3 10 Partly Cloudy SCT031 69 69     100%     30.12        
Oct 16 05:35 Calm 10 Mostly Cloudy BKN033 BKN041 BKN060 69 69     100%     30.11        
Oct 16 05:15 Calm 10 Cloudy OVC033 69 69     100%     30.11        
Oct 16 04:55 Calm 10 Mostly Cloudy BKN033 BKN040 BKN050 69 69     100%     30.11        
Oct 16 04:35 Calm 10 Mostly Cloudy BKN035 BKN043 BKN050 69 69     100%     30.11        
Oct 16 04:15 Calm 10 Mostly Cloudy BKN037 68 68     100%     30.11        
Oct 16 03:35 Calm 10 Clear CLR 69 69     100%     30.11        
Oct 16 03:15 Calm 10 Clear CLR 69 69     100%     30.11        
Oct 16 02:55 Calm 10 Partly Cloudy SCT095 69 69     100%     30.11        
May 15 05:15 Calm 10 Clear CLR 68 68     100%     29.99        
May 15 01:15 Calm 10 Clear CLR 70 70     100%     29.97        
May 14 23:35 Calm 10 Clear CLR 70 70     100%     29.98        
May 14 18:15 Calm 10 Clear CLR 85 74     70%   92 29.96        
May 14 15:15 ENE 6 10 Clear CLR 89 68     50%   93 29.98        
May 14 11:15 NE 5 10 Clear CLR 85 69     58%   89 30.05        
May 14 07:35 NNE 3 10 Clear CLR 68 65     89%     30.05        
May 13 14:55 NW 8 10 Clear CLR 89 63     42%   90 30.07        
May 13 07:55 Calm 10 Clear CLR 71 64     78%   72 30.15        
May 12 21:15 Calm 10 Clear CLR 69 66     91%     30.11        
May 12 20:55 Calm 10 Clear CLR 70 66     89%     30.11        
May 12 19:35 Calm 10 Clear CLR 76        %     30.09        
May 12 17:55 WSW 6 10 Clear CLR 87 63     46%   88 30.08        
May 12 17:15 W 7 10 Clear CLR 87 63     44%   88 30.09        
May 12 15:55 SSW 3 10 Clear   88 63     44%   89 30.11        
May 12 15:35 WSW 8 10 Clear CLR 89 64     44%   90 30.11        
May 12 02:55 Calm 10 Clear CLR 61 61     100%     30.11        
May 11 21:15 Calm 10 Clear CLR 69 65     88%     30.11        
May 11 17:15 SW 5 10 Clear CLR 86 63     47%   87 30.08        
May 11 13:35 W 3 10 Clear CLR 85 65     51%   87 30.13        
May 11 10:55 WSW 3 10 Clear CLR 81 67     62%   84 30.16        
Jun 12 07:15 Calm 10 Mostly Cloudy BKN004 74 72     94%   75 30.18        
Jun 12 05:35 Calm 10 Mostly Cloudy BKN011 70 69     96%     30.16        
Jun 12 01:15 Calm 10 Partly Cloudy SCT033 72 71     96%   74 30.15        
Jun 11 17:55 ESE 3 10 Clear CLR 85 69     60%   89 30.09        
Jun 11 16:55 SE 6 10 Clear   87 68     54%   91 30.11        
Jun 11 16:15 SE 5 10 Clear CLR 87 68     54%   91 30.13        
Jun 11 14:55 SE 6 10 Clear   86 68     54%   90 30.14        
Notice The following observation data may not be complete
Jun 11 05:15   10 Clear CLR          %              
Jun 10 10:15 SE 3 10 Clear CLR 81 62     53%   82 30.11        
Notice The following observation data may not be complete
Jun 09 16:15   10 Partly Cloudy SCT055 SCT065          %              
Jun 08 17:35 NNW 3 10 Clear CLR 80 57     46%   79 29.86        
Notice The following observation data may not be complete
Jun 08 12:15   10 Clear CLR          %              
Notice The following observation data may not be complete
Jun 08 11:15   10 Partly Cloudy SCT035          %              
Jun 08 09:15 SE 3 10 Partly Cloudy SCT041 69 60     71%     29.93        
Notice The following observation data may not be complete
Jun 08 07:55   10 Partly Cloudy SCT040 SCT090          %              
Jun 08 07:35 Calm 10 Clear CLR 65 59     83%     29.92        
Jun 07 20:55 N 5 10 Clear CLR 72 59     63%   72 29.85        
Jun 07 15:15 E 7 10 Partly Cloudy SCT032 SCT060 78 67     68%   79 29.79        
Jun 07 10:55 E 6 10 Mostly Cloudy BKN024 BKN031 76 66     73%   76 29.81        
Jun 06 03:35 Calm 5 Fog/Mist OVC004 71 71     99%   73 29.79        
Jun 06 00:55 Calm 7 Cloudy OVC002 72 71     98%   73 29.83       0
Notice The following observation data may not be complete
Jun 05 18:35   10 Partly Cloudy SCT012          %              
Jun 05 16:35 WSW 5 10 Partly Cloudy SCT018 76 71     82%   78 29.83        
Jun 05 15:15 S 9 10 Partly Cloudy SCT040 78 70     75%   80 29.81